• Processing (Info)

  • MPEC 2010-T102: 2010 TA55

    The following Minor Planet Electronic Circular may be linked-to from your own Web pages, but must not otherwise be redistributed electronically.

    A form allowing access to any MPEC is at the bottom of this page.


    Read MPEC 2010-T101 Read MPEC 2010-T103


    M.P.E.C. 2010-T102                               Issued 2010 Oct. 13, 14:07 UT
    
         The Minor Planet Electronic Circulars contain information on unusual
             minor planets and routine data on comets.  They are published
       on behalf of Commission 20 of the International Astronomical Union by the
              Minor Planet Center, Smithsonian Astrophysical Observatory,
                              Cambridge, MA 02138, U.S.A.
    
                 Prepared using the Tamkin Foundation Computer Network
    
                                  MPC@CFA.HARVARD.EDU
           URL https://www.minorplanetcenter.org/iau/mpc.html  ISSN 1523-6714
    
                                       2010 TA55
    
    Observations:
         K10T55A* C2010 10 11.47078 04 26 05.39 +18 45 40.3          21.4 w ET102F51
         K10T55A  C2010 10 11.48484 04 26 07.89 +18 44 58.3          21.2 w ET102F51
         K10T55A  C2010 10 11.49918 04 26 10.46 +18 44 15.4          21.5 w ET102F51
         K10T55A  C2010 10 11.51325 04 26 12.94 +18 43 33.2          21.7 w ET102F51
         K10T55A  C2010 10 12.35934 04 28 52.62 +18 00 11.6          20.8 R ET102H01
         K10T55A  C2010 10 12.36618 04 28 53.83 +17 59 50.5          20.8 R ET102H01
         K10T55A  C2010 10 12.38088 04 28 56.44 +17 59 04.9          20.3 R ET102H01
         K10T55A  C2010 10 12.39382 04 28 58.72 +17 58 24.7          20.7 R ET102H01
         K10T55A IC2010 10 13.36950604 32 01.31 +17 06 47.3                 ET102H21
         K10T55A tC2010 10 13.38040 04 32 04.00 +17 06 15.9          21.0 V ET102291
         K10T55A KC2010 10 13.38243004 32 03.59 +17 06 05.9          20.3 V ET102H21
         K10T55A  C2010 10 13.38380 04 32 04.45 +17 06 04.6          20.2 R ET102H01
         K10T55A tC2010 10 13.38455 04 32 04.73 +17 06 03.2          21.2 V ET102291
         K10T55A  C2010 10 13.39062 04 32 05.65 +17 05 42.7          20.8 R ET102H01
         K10T55A  C2010 10 13.39933 04 32 07.18 +17 05 14.7          20.4 R ET102H01
         K10T55A KC2010 10 13.40175204 32 07.07 +17 05 03.0          20.7 V ET102H21
         K10T55A  C2010 10 13.40658 04 32 08.45 +17 04 51.3          20.9 R ET102H01
    
    Observer details:
    291 LPL/Spacewatch II.  Observer R. S. McMillan.  1.8-m f/2.7 reflector + CCD.
    F51 Pan-STARRS 1, Haleakala.  Observers N. Primak, A. Schultz, S. Watters,
        J. Thiel, T. Goggia.  Measurer P. 1 Science Consortium.  1.8-m
        Ritchey-Chretien + CCD.
    H01 Magdalena Ridge Observatory, Socorro.  Observer W. H. Ryan.  2.4-m f/8.9
        reflector + CCD.
    H21 Astronomical Research Observatory, Westfield.  Observer R. Holmes.
        Measurer S. Foglia.  0.81-m f/4.0 astrograph + CCD.
    
    Orbital elements:
    2010 TA55                                                Earth MOID = 0.1936 AU
    Epoch 2010 July 23.0 TT = JDT 2455400.5                 MPC
    M 291.04123              (2000.0)            P               Q
    n   0.52662068     Peri.  226.86200     +0.30768975     -0.94431409
    a   1.5186958      Node   205.91285     +0.93195036     +0.32380774
    e   0.2531514      Incl.   15.47632     +0.19182165     -0.05847603
    P   1.87           H   21.9           G   0.15           U   8
    Residuals in seconds of arc
    101011 F51  0.1-  0.0     101012 H01  0.1+  0.1+    101013 291  0.0   0.4+
    101011 F51  0.1-  0.0     101012 H01  0.1-  0.0     101013 H01  0.0   0.3+
    101011 F51  0.2+  0.0     101013 H21  0.4-  0.6-    101013 H01  0.0   0.3+
    101011 F51  0.0   0.0     101013 291  0.0   0.3-    101013 H21  0.7+  0.7-
    101012 H01  0.1+  0.1+    101013 H21  0.3-  0.3-    101013 H01  0.0   0.3+
    101012 H01  0.1+  0.1+    101013 H01  0.0   0.2+
    
    Ephemeris:
    2010 TA55                a,e,i = 1.52, 0.25, 15                  q = 1.1342
    Date    TT    R. A. (2000) Decl.     Delta      r     Elong.  Phase     V
    2010 10 11    04 24.58   +19 09.2    0.289    1.205   129.9    39.5    21.2
    2010 10 21    04 55.08   +09 25.9    0.253    1.181   132.4    38.5    20.8
    2010 10 31    05 22.29   -02 37.2    0.233    1.161   131.8    39.6    20.6
    2010 11 10    05 44.66   -15 04.6    0.230    1.147   128.1    42.8    20.7
    2010 11 20    06 01.51   -25 47.3    0.241    1.138   123.2    46.6    20.9
    2010 11 30    06 12.91   -33 43.6    0.259    1.134   118.8    49.6    21.1
    2010 12 10    06 19.39   -38 50.6    0.281    1.137   116.0    51.2    21.3
    2010 12 20    06 22.50   -41 28.1    0.304    1.145   114.7    51.3    21.5
    2010 12 30    06 24.03   -41 59.3    0.326    1.158   114.8    50.4    21.7
    2011 01 09    06 25.74   -40 39.5    0.346    1.177   115.9    48.7    21.8
    2011 01 19    06 29.39   -37 44.0    0.366    1.200   117.8    46.5    21.9
    2011 01 29    06 35.92   -33 30.3    0.389    1.226   120.0    44.1    22.0
    
    Sonia Keys                   (C) Copyright 2010 MPC           M.P.E.C. 2010-T102
    

    Read MPEC 2010-T101 Read MPEC 2010-T103


    MPEC number:

    Enter an MPEC number in one of the following forms:

    • 1997-B01 (the full form)
    • J97B01 (the packed version of the full form)
    • B01 (the abbreviated form)